VE3FWM-1 Weather Reports


Display with metric or nautical units.
time (UTC)temp
F
wind
direction
speed
MPH
gust
MPH
rain 1hr
in
rain 24hr
in
rain mn
in
humidity
%
barometer
mb
20260510104516 40 262 1.0 9.0 0.00 0.03 0.01 81 1009.8
20260510103016 40 329 2.0 8.0 0.00 0.03 0.01 82 1009.6
20260510101516 39 315 5.0 9.0 0.00 0.03 0.01 82 1009.3
20260510100016 39 321 2.0 8.0 0.00 0.03 0.01 83 1009.1
20260510094526 39 313 3.0 9.0 0.00 0.03 0.01 83 1008.7
20260510093017 38 323 1.0 5.0 0.00 0.03 0.01 83 1008.5
20260510091521 38 20 0.0 2.0 0.00 0.03 0.01 82 1008.4
20260510090017 39 360 0.0 4.0 0.00 0.03 0.01 81 1008.0
20260510084517 39 286 0.0 5.0 0.00 0.03 0.01 81 1007.9
20260510083017 39 211 1.0 6.0 0.00 0.03 0.01 81 1007.6
20260510081516 39 320 1.0 5.0 0.01 0.03 0.01 81 1007.5
20260510080016 40 289 1.0 4.0 0.01 0.03 0.01 81 1007.2
20260510074517 40 284 0.0 3.0 0.01 0.03 0.01 80 1007.3
20260510073016 40 252 1.0 4.0 0.01 0.03 0.01 80 1007.3
20260510071517 41 281 1.0 5.0 0.00 0.02 0.00 79 1007.2
20260510070017 41 277 1.0 6.0 0.00 0.02 0.00 79 1007.0
20260510064517 42 332 3.0 12.0 0.00 0.02 0.00 79 1006.8
20260510063017 42 322 2.0 10.0 0.00 0.02 0.00 79 1006.6
20260510061526 43 271 7.0 15.0 0.00 0.02 0.00 77 1006.5
20260510060038 43 325 4.0 11.0 0.00 0.02 0.00 76 1006.4
20260510054517 43 322 3.0 11.0 0.00 0.02 0.00 78 1006.4
20260510053017 43 248 1.0 5.0 0.00 0.02 0.00 76 1006.3
20260510051518 44 318 1.0 9.0 0.00 0.02 0.00 76 1006.0
20260510050021 43 307 3.0 10.0 0.00 0.02 0.00 77 1005.8
20260510044518 43 277 0.0 3.0 0.00 0.02 0.00 77 1005.5
20260510043018 43 277 1.0 3.0 0.00 0.02 0.00 78 1005.3
20260510041518 44 277 1.0 3.0 0.01 0.02 0.00 79 1005.0
20260510040017 45 277 0.0 3.0 0.01 0.02 0.00 79 1005.0
20260510034517 45 285 0.0 4.0 0.01 0.03 0.02 79 1004.8
20260510033017 45 221 0.0 3.0 0.01 0.03 0.02 80 1004.8
20260510031517 45 277 0.0 3.0 0.00 0.02 0.01 82 1004.5
20260510030020 45 275 0.0 2.0 0.00 0.02 0.01 82 1004.6
20260510024517 46 275 0.0 3.0 0.00 0.02 0.01 81 1004.4
20260510023033 46 297 0.0 2.0 0.00 0.02 0.01 81 1004.4
20260510021518 46 340 0.0 4.0 0.00 0.02 0.01 82 1004.2
20260510020017 46 316 0.0 8.0 0.00 0.02 0.01 83 1004.0
20260510014517 47 316 2.0 8.0 0.00 0.02 0.01 83 1003.4
20260510013017 47 329 4.0 9.0 0.00 0.02 0.01 83 1002.9
20260510011523 48 322 7.0 13.0 0.01 0.02 0.01 82 1002.7
20260510010023 48 324 10.0 15.0 0.01 0.02 0.01 82 1002.4
20260510004517 49 327 12.0 19.0 0.01 0.02 0.01 82 1002.1
20260510003018 50 319 12.0 18.0 0.01 0.02 0.01 88 1001.7
20260510001518 51 225 1.0 3.0 0.00 0.01 0.00 94 1001.2
20260510000017 51 229 0.0 3.0 0.00 0.01 0.00 94 1000.7
20260509234519 52 227 0.0 2.0 0.00 0.01 0.00 94 1000.6
20260509233019 52 232 1.0 3.0 0.00 0.01 0.00 94 1000.6
20260509231517 52 232 2.0 5.0 0.00 0.01 0.00 94 1000.6
20260509230017 51 261 1.0 3.0 0.00 0.01 0.00 95 1000.2
20260509224517 50 262 0.0 2.0 0.00 0.01 0.00 94 1000.2
20260509223020 50 262 1.0 3.0 0.00 0.01 0.00 93 1000.1
20260509221518 50 263 0.0 2.0 0.00 0.01 0.00 92 1000.1
20260509220020 50 271 0.0 3.0 0.00 0.01 0.00 90 1000.5
20260509214517 52 226 3.0 11.0 0.00 0.01 0.00 87 1000.8
20260509213018 54 360 0.0 6.0 0.00 0.01 0.00 88 1000.4
20260509211539 55 360 2.0 10.0 0.00 0.01 0.00 85 999.8
20260509210017 56 360 3.0 9.0 0.00 0.01 0.00 83 999.5
20260509204518 58 360 4.0 9.0 0.00 0.01 0.00 79 998.9
20260509203033 59 360 5.0 12.0 0.00 0.01 0.00 74 998.7
20260509201521 60 360 5.0 11.0 0.00 0.01 0.00 72 998.8
20260509200018 61 360 5.0 9.0 0.00 0.01 0.00 71 998.9
20260509194517 62 360 6.0 11.0 0.00 0.01 0.00 69 999.2
20260509193017 60 360 3.0 9.0 0.00 0.01 0.00 73 999.3
20260509191519 60 360 3.0 9.0 0.00 0.01 0.00 73 999.5
20260509190022 60 360 3.0 6.0 0.00 0.01 0.00 75 999.6
20260509184517 61 360 3.0 9.0 0.00 0.01 0.00 70 999.9
20260509183022 61 360 3.0 8.0 0.00 0.01 0.00 70 999.9
20260509181518 60 360 3.0 8.0 0.00 0.01 0.00 70 999.9
20260509180018 61 360 3.0 9.0 0.00 0.01 0.00 68 1000.5
20260509174518 61 360 3.0 9.0 0.00 0.01 0.00 69 1000.7
20260509173019 61 360 4.0 8.0 0.00 0.01 0.00 71 1001.3
20260509171518 61 360 3.0 9.0 0.00 0.01 0.00 71 1001.6
20260509170018 60 360 3.0 11.0 0.00 0.01 0.00 72 1001.8
20260509164518 60 360 3.0 8.0 0.00 0.01 0.00 72 1002.2
20260509163022 60 360 3.0 9.0 0.00 0.01 0.00 71 1002.6
20260509161519 61 360 3.0 8.0 0.00 0.01 0.00 70 1002.7
20260509160019 61 360 3.0 9.0 0.00 0.01 0.00 70 1002.7
20260509154518 60 360 3.0 8.0 0.00 0.01 0.00 71 1002.9
20260509153021 60 360 4.0 9.0 0.00 0.01 0.00 71 1003.0
20260509151519 59 360 2.0 9.0 0.00 0.01 0.00 72 1003.0
20260509150018 59 360 2.0 10.0 0.00 0.01 0.00 73 1003.3
20260509144518 58 360 3.0 9.0 0.00 0.01 0.00 73 1003.4
20260509143023 57 360 2.0 8.0 0.00 0.01 0.00 75 1003.3
20260509141507 58 360 3.0 8.0 0.00 0.01 0.00 73 1003.7
20260509140008 57 360 3.0 6.0 0.00 0.01 0.00 73 1003.4
20260509134507 57 360 2.0 4.0 0.00 0.01 0.00 72 1003.7
20260509133008 55 360 1.0 4.0 0.00 0.01 0.00 71 1004.0
20260509131507 55 360 1.0 4.0 0.00 0.01 0.00 70 1004.1
20260509130013 53 360 1.0 3.0 0.00 0.01 0.00 71 1004.2
20260509124508 52 360 1.0 3.0 0.00 0.01 0.00 72 1004.2
20260509123008 51 360 1.0 3.0 0.00 0.01 0.00 71 1004.2
20260509121510 50 360 0.0 2.0 0.00 0.01 0.00 72 1004.4
20260509120014 49 360 0.0 4.0 0.00 0.01 0.00 75 1004.4
20260509114508 47 360 0.0 0.0 0.00 0.01 0.00 74 1004.4
20260509113008 47 360 0.0 0.0 0.00 0.01 0.00 75 1004.7
20260509111507 46 360 0.0 0.0 0.00 0.01 0.00 77 1004.6
20260509110009 44 360 0.0 0.0 0.00 0.01 0.00 79 1004.6